This demonstration page uses our WeatherBlox Daily Observations layout. Learn more.

Left ArrowRight Arrow

Hourly Observations for September 1, 2019

Temp ( °F °C ) Dew Point ( °F °C ) Humidity (%) Winds ( mph kmh ) Pressure ( in mb ) Visibility ( mi km ) Precip ( " mm )
12:54 am 00:54 Clear 62 16.7 56 13.3 80 80 Calm 30.15 1021 10 16 0.00 0.00
1:54 am 01:54 Clear 59 15 55 12.8 87 87 Calm 30.14 1021 10 16 0.00 0.00
2:54 am 02:54 Clear 60 15.6 56 13.3 86 86 Calm 30.13 1020 10 16 0.00 0.00
3:54 am 03:54 Mostly Cloudy 61 16.1 58 14.4 90 90 S 3 6 30.13 1020 10 16 0.00 0.00
4:49 am 04:49 Partly Cloudy 57 14 54 12 88 88 N 3 6 30.13 1020 10 16 0.00 0.00
4:54 am 04:54 Mostly Cloudy 57 13.9 55 12.8 93 93 N 3 6 30.12 1020 10 16 0.00 0.00
5:54 am 05:54 Cloudy 60 15.6 57 13.9 90 90 N 3 6 30.12 1020 10 16 0.00 0.00
6:05 am 06:05 Cloudy 60 15.6 57 13.9 90 90 Calm 30.13 1020 10 16 0.00 0.00
6:21 am 06:21 Cloudy 60 15.6 57 13.9 90 90 Calm 30.13 1020 10 16 0.00 0.00
6:34 am 06:34 Cloudy 61 16.1 58 14.4 90 90 Calm 30.12 1020 10 16 0.00 0.00
6:54 am 06:54 Cloudy 60 15.6 57 13.9 90 90 SSE 3 6 30.12 1020 10 16 0.00 0.00
7:16 am 07:16 Cloudy 61 16.1 58 14.4 90 90 S 6 9 30.13 1020 10 16 0.00 0.00
7:42 am 07:42 Cloudy with Mist and Fog 62 16.7 60 15.6 93 93 S 6 9 30.13 1020 2 3 0.00 0.00
7:54 am 07:54 Cloudy with Mist and Fog 62 16.7 60 15.6 93 93 S 6 9 30.13 1020 1 2 0.00 0.00
8:03 am 08:03 Cloudy with Fog 62 16.7 60 15.6 93 93 S 6 9 30.13 1020 1 1 0.00 0.00
8:54 am 08:54 Mostly Cloudy with Fog 63 17.2 61 16.1 93 93 SSW 6 9 30.14 1021 1 1 0.00 0.00
9:40 am 09:40 Cloudy with Mist and Fog 65 18.3 63 17.2 93 93 S 7 11 30.12 1020 2 2 0.00 0.00
9:54 am 09:54 Cloudy with Mist and Fog 65 18.3 63 17.2 93 93 S 6 9 30.13 1020 2 2 0.00 0.00
10:35 am 10:35 Cloudy with Mist and Fog 68 20 65 18.3 90 90 S 7 11 30.12 1020 2 2 0.00 0.00
10:54 am 10:54 Cloudy 70 21.1 65 18.3 84 84 S 6 9 30.13 1020 10 16 0.00 0.00
11:30 am 11:30 Mostly Cloudy 72 22.2 65 18.3 79 79 S 7 11 30.10 1019 10 16 0.00 0.00
11:54 am 11:54 Mostly Cloudy 76 24.4 67 19.4 74 74 S 9 15 30.11 1020 10 16 0.00 0.00
12:23 pm 12:23 Mostly Cloudy 74 23.3 66 18.9 76 76 SSW 9 15 30.08 1019 10 16 0.00 0.00
12:54 pm 12:54 Cloudy 75 23.9 66 18.9 74 74 S 9 15 30.10 1019 10 16 0.00 0.00
1:36 pm 13:36 Partly Cloudy 78 25.6 67 19.4 69 69 SSE 9 15 30.05 1018 10 16 0.00 0.00
1:54 pm 13:54 Sunny 79 26.1 68 20 69 69 VRB 6 9 30.08 1019 10 16 0.00 0.00
2:54 pm 14:54 Mostly Sunny 81 27.2 68 20 65 65 S 12 19 30.06 1018 10 16 0.00 0.00
3:54 pm 15:54 Partly Cloudy 82 27.8 69 20.6 65 65 S 9 15 30.04 1017 10 16 0.00 0.00
4:54 pm 16:54 Mostly Sunny 81 27.2 68 20 65 65 S 9 15 30.03 1017 10 16 0.00 0.00
5:54 pm 17:54 Mostly Cloudy 80 26.7 68 20 67 67 S 7 11 30.03 1017 10 16 0.00 0.00
6:54 pm 18:54 Sunny 80 26.7 69 20.6 69 69 SSE 8 13 30.03 1017 10 16 0.00 0.00
7:54 pm 19:54 Sunny 77 25 68 20 74 74 SSE 8 13 30.03 1017 10 16 0.00 0.00
8:54 pm 20:54 Clear 74 23.3 68 20 82 82 SE 6 9 30.04 1017 10 16 0.00 0.00
9:54 pm 21:54 Clear 71 21.7 67 19.4 87 87 SSE 5 7 30.05 1018 10 16 0.00 0.00
10:54 pm 22:54 Clear 71 21.7 67 19.4 87 87 S 5 7 30.06 1018 10 16 0.00 0.00
11:54 pm 23:54 Clear 68 20 65 18.3 90 90 S 7 11 30.06 1018 10 16 0.00 0.00

Powered by AerisWeather